Home   Weather   Ettelbruck   Past weeks

Flag for Luxembourg Past Weather in Ettelbruck, Luxembourg — Yesterday and Last 2 Weeks

Now
55 °F

Overcast.


Feels Like: N/A
Forecast: 53 / 61 °F
Wind: N/A

Location: Luxembourg / Luxembourg

Current Time: Sep 30, 2016 at 10:27:12 PM

Latest Report: Sep 30, 2016 at 9:00 PM


Visibility: 16 mi

Pressure: 29.98 "Hg

Humidity: 90%

Dew Point: 52 °F

Location of EttelbruckLocation

Past Weather in Ettelbruck — Graph

°F

Ettelbruck Temperature Yesterday

Maximum temperature yesterday: 72 °F (at 3:00 PM)
Minimum temperature yesterday: 53 °F (at 8:00 AM)
Average temperature yesterday: 62 °F

High & Low Weather Summary for the Past Weeks

 TemperatureHumidityPressure
High75 °F (Sep 25, 5:00 PM)98% (Sep 16, 8:00 AM)30.39 "Hg (Sep 16, 8:00 AM)
Low48 °F (Sep 22, 6:00 AM)34% (Sep 24, 5:00 PM)29.92 "Hg (Sep 16, 6:00 PM)
Average59 °F76%30.13 "Hg
* Reported Sep 15 9:00 PM — Sep 30 9:00 PM, Ettelbruck, Weather by CustomWeather, © 2016

Note: Actual official high and low records may vary slightly from our data, if they occured in-between our weather recording intervals... More about our weather records

Advertising

Ettelbruck Weather History for the Previous 24 Hours

Scroll right to see more
 ConditionsComfort  
Time TempWeatherWind HumidityBarometerVisibility
9:00 PM
Fri, Sep 30
55 °FOvercast.N/A90%29.98 "Hg16 mi
8:00 PM56 °FOvercast.N/A83%29.98 "Hg16 mi
7:00 PM57 °FOvercast.3 mph79%29.99 "Hg16 mi
6:00 PM58 °FOvercast.3 mph75%29.99 "Hg16 mi
5:00 PM58 °FOvercast.3 mph84%30.00 "Hg16 mi
4:00 PM57 °FLow clouds.3 mph88%30.01 "Hg16 mi
3:00 PM57 °FLow clouds.3 mph86%30.01 "Hg12 mi
2:00 PM56 °FOvercast.3 mph91%30.03 "Hg14 mi
1:00 PM56 °FOvercast.3 mph90%30.03 "Hg9 mi
12:00 PM55 °FLow clouds.3 mph94%30.03 "Hg4 mi
11:00 AM56 °FSprinkles. Low clouds.2 mph94%30.01 "Hg7 mi
9:00 AM56 °FLight rain. Overcast.N/A88%29.98 "Hg16 mi
8:00 AM56 °FLight rain. Overcast.N/A90%29.98 "Hg16 mi
7:00 AM56 °FOvercast.N/A90%29.98 "Hg12 mi
6:00 AM56 °FLow clouds.2 mph90%29.98 "Hg12 mi
5:00 AM57 °FLow clouds.2 mph93%29.98 "Hg7 mi
4:00 AM58 °FPassing clouds.3 mph92%29.98 "Hg9 mi
3:00 AM58 °FPassing clouds.3 mph92%30.00 "Hg11 mi
2:00 AM58 °FPassing clouds.2 mph92%30.00 "Hg11 mi
1:00 AM58 °FPassing clouds.3 mph91%30.01 "Hg15 mi
12:00 AM59 °FPassing clouds.3 mph87%30.02 "Hg19 mi
11:00 PM
Thu, Sep 29
60 °FPassing clouds.5 mph85%30.02 "Hg19 mi
10:00 PM62 °FPassing clouds.5 mph81%30.03 "Hg19 mi
Weather by CustomWeather, © 2016

See weather overviewHow to use our weather pages